TimeCDT,TemperatureF,Dew PointF,Humidity,Sea Level PressureIn,VisibilityMPH,Wind Direction,Wind SpeedMPH,Gust SpeedMPH,PrecipitationIn,Events,Conditions,WindDirDegrees,DateUTC
12:53 AM,19.0,16.0,88,30.32,10.0,Calm,Calm,-,N/A,,Clear,0,2013-04-02 05:53:00
1:53 AM,19.0,15.1,85,30.31,10.0,Calm,Calm,-,N/A,,Clear,0,2013-04-02 06:53:00
2:53 AM,18.0,15.1,88,30.31,10.0,Calm,Calm,-,N/A,,Clear,0,2013-04-02 07:53:00
3:53 AM,18.0,16.0,92,30.31,10.0,Calm,Calm,-,N/A,,Clear,0,2013-04-02 08:53:00
4:53 AM,17.1,14.0,88,30.31,10.0,Calm,Calm,-,N/A,,Clear,0,2013-04-02 09:53:00
5:53 AM,18.0,15.1,88,30.32,10.0,Calm,Calm,-,N/A,,Clear,0,2013-04-02 10:53:00
6:53 AM,17.1,14.0,88,30.33,10.0,Calm,Calm,-,N/A,,Clear,0,2013-04-02 11:53:00
7:53 AM,19.0,16.0,88,30.35,10.0,Calm,Calm,-,N/A,,Clear,0,2013-04-02 12:53:00
8:53 AM,23.0,19.0,85,30.36,10.0,East,3.5,-,N/A,,Partly Cloudy,100,2013-04-02 13:53:00
9:53 AM,28.0,19.9,72,30.35,10.0,East,3.5,-,N/A,,Mostly Cloudy,90,2013-04-02 14:53:00
10:53 AM,32.0,19.0,59,30.36,10.0,ENE,3.5,-,N/A,,Clear,70,2013-04-02 15:53:00
11:53 AM,32.0,21.0,64,30.37,10.0,ENE,8.1,-,N/A,,Clear,70,2013-04-02 16:53:00
12:53 PM,33.1,21.0,61,30.37,10.0,ENE,4.6,-,N/A,,Clear,70,2013-04-02 17:53:00
1:53 PM,32.0,19.9,61,30.36,10.0,Calm,Calm,-,N/A,,Clear,0,2013-04-02 18:53:00
2:53 PM,37.9,23.0,55,30.35,10.0,Variable,5.8,-,N/A,,Clear,0,2013-04-02 19:53:00
3:53 PM,37.0,23.0,57,30.35,10.0,NE,11.5,-,N/A,,Clear,50,2013-04-02 20:53:00
4:53 PM,35.1,24.1,64,30.35,10.0,ENE,10.4,-,N/A,,Clear,60,2013-04-02 21:53:00
5:53 PM,33.1,21.9,64,30.35,10.0,ENE,10.4,-,N/A,,Clear,70,2013-04-02 22:53:00
6:53 PM,30.9,19.9,64,30.36,10.0,East,10.4,-,N/A,,Clear,80,2013-04-02 23:53:00
7:53 PM,28.0,18.0,66,30.37,10.0,East,9.2,-,N/A,,Clear,80,2013-04-03 00:53:00
8:53 PM,26.1,17.1,69,30.36,10.0,ENE,6.9,-,N/A,,Clear,70,2013-04-03 01:53:00
9:53 PM,26.1,17.1,69,30.36,10.0,East,5.8,-,N/A,,Clear,100,2013-04-03 02:53:00
10:53 PM,25.0,17.1,72,30.35,10.0,ESE,5.8,-,N/A,,Clear,110,2013-04-03 03:53:00
11:53 PM,24.1,18.0,77,30.35,10.0,SE,4.6,-,N/A,,Clear,140,2013-04-03 04:53:00